SCOUT G-1 DEB

Satellite information

Favourite Embed

Satellite Type and Status

DEBRISIN ORBIT

Key statistics

Satellite SCOUT G-1 DEB at a glance.

Uptime

11761

Days in orbit

Revolutions

≈ 15.1

Per day

Orbit

LEO

Low Earth Orbit

Inclination

89.5

Latest

Satellite identification and parameters

Extended collection of information and parameters for SCOUT G-1 DEB.

Object identification

Identified? True

Debris? True

Object name: SCOUT G-1 DEB

International designator: 1993-041E

Object number (NORAD): 35401

Object ID (CCSDS): 35401

Country: UNITED STATES OF AMERICA (US)

Current information (Y/N): Y

RCS size: SMALL

Orbital parameters

Period: 95.459 minutes

Inclination: 89.5034 deg

SMA: 6918.899 km

Apoapsis: 556.151 km

Periapsis: 525.377 km

RAAN: 38.3696 deg

Eccentricy: 0.0022239

Argument of periapsis: 338.6743 deg

Mean anomaly: 21.3567 deg

Mean motion: 15.08506839 rev/day

Mean motion (dot): 0.000604 rev/day2

B* drag term: 0.0038247836 1/REarth

Two-line elements (TLE)

Creation date: Aug. 31, 2025, 11:35 a.m.

Reference frame: TEME

Reference center: EARTH

Epoch: Aug. 31, 2025, 3:40 a.m. UTC

TLE line 0: 0 SCOUT G-1 DEB

TLE line 1: 1 35401U 93041E 25243.15321094 .00060400 00000-0 38248-2 0 9998

TLE line 2: 2 35401 89.5034 38.3696 0022239 338.6743 21.3567 15.08506839712336

Live tracking on map

Real-time ground track for satellite SCOUT G-1 DEB.

In-orbit conjunctions

A list of the most updated potential collisions computed for object SCOUT G-1 DEB.

Target Orbit TCA Probability of collision Miss distance Type
HELIOS 1B SSO 2024-11-08 04:57:07 0.0003465662 466.0 (m) PAYLOAD

Associated space launch

RadCal (Radar Calibration) is small satellite to calibrate the Space Command radars to determine orbital positions of other satellites to within a few meters.

SCOUT G-1 DEB was lifted into orbit during the mission ‘Scout G-1 | RADCAL’, on board a Scout G-1 space rocket.

The launch took place on June 25, 1993, 11:30 p.m. from Space Launch Complex 5.

For more information about the launch, click the button.

Launch to space Scout G-1 | RADCAL
Scout G-1 | RADCAL

Agency: N/A

Status: Launch Successful

Launch date: June 25, 1993, 11:30 p.m. UTC

Rocket: Scout G-1

Launch pad: Space Launch Complex 5

Location: Vandenberg SFB, CA, USA

...

Latest news about this satellite

There are no fresh news available about this satellite. Check back as we update our databases every day.


Newsletter sign-up

Weekly statistics, charts and insights to help you stay on top of the space industry.